Flag for Germany Weather past 2 weeks in Senftenberg, Brandenburg, Germany

Now
29 °F

Fog.


Feels Like: 29 °F
Forecast: 30 / 47 °F
Wind: 2 mph from West

Location: Cottbus

Current Time: Feb 28, 2015 at 2:02:00 AM

Latest Report: Feb 28, 2015 at 1:00 AM


Visibility: 2 mi

Pressure: 30.03 "Hg

Humidity: 96%

Dew point: 28 °F

Location of SenftenbergLocation

Historic Weather in Senftenberg — Graph

°F

Senftenberg temperature yesterday

Maximum temperature yesterday: 48 °F (at 2:00 PM)
Minimum temperature yesterday: 28 °F (at 5:00 AM)
Average temperature yesterday: 37 °F

Past Weeks' High & Low Weather Summary

 TemperatureHumidityPressure
High52 °F (Feb 21, 3:00 PM)100% (Feb 18, 3:00 AM)30.75 "Hg (Feb 18, 3:00 AM)
Low22 °F (Feb 13, 7:00 AM)42% (Feb 26, 3:00 PM)29.41 "Hg (Feb 21, 3:00 PM)
Average36 °F79%30.05 "Hg
* Reported Feb 13 1:00 AM — Feb 28 1:00 AM, Senftenberg, Weather by CustomWeather, © 2015

Note: Actual official high and low records may vary slightly from our data, if they occured in-between our weather recording intervals... More about our weather records

Advertising

Senftenberg weather history for previous 24 hours

 ConditionsComfort  
Time TempWeatherWind HumidityBarometerVisibility
1:00 AM
Sat, Feb 28
29 °FFog.2 mph96%30.03 "Hg2 mi
12:00 AM31 °FFog.2 mph96%30.02 "Hg3 mi
11:00 PM
Fri, Feb 27
31 °FFog.2 mph98%30.01 "Hg2 mi
10:00 PM30 °FFog.2 mph95%30.00 "Hg2 mi
9:00 PM31 °FFog.1 mph96%29.99 "Hg2 mi
8:00 PM35 °FFog.1 mph92%29.97 "Hg2 mi
7:00 PM39 °FFog.2 mph83%29.95 "Hg3 mi
6:00 PM44 °FClear.2 mph71%29.93 "Hg5 mi
5:00 PM47 °FPassing clouds.3 mph60%29.91 "Hg6 mi
4:00 PM48 °FScattered clouds.3 mph58%29.91 "Hg6 mi
3:00 PM47 °FOvercast.3 mph60%29.90 "Hg6 mi
2:00 PM48 °FOvercast.2 mph58%29.90 "Hg7 mi
1:00 PM48 °FSunny.3 mph59%29.91 "Hg7 mi
12:00 PM47 °FSunny.3 mph61%29.92 "Hg5 mi
11:00 AM46 °FSunny.3 mph59%29.92 "Hg7 mi
10:00 AM42 °FSunny.3 mph70%29.93 "Hg4 mi
9:00 AM37 °FSunny.2 mph78%29.93 "Hg4 mi
8:00 AM30 °FFog.1 mph90%29.94 "Hg2 mi
7:00 AM28 °FFog.2 mph95%29.93 "Hg2 mi
6:00 AM29 °FFog.2 mph96%29.94 "Hg2 mi
5:00 AM28 °FFog.1 mph96%29.94 "Hg2 mi
4:00 AM28 °FFog.2 mph96%29.95 "Hg2 mi
3:00 AM28 °FFog.1 mph96%29.98 "Hg3 mi
2:00 AM30 °FFog.1 mph94%29.99 "Hg3 mi
Weather by CustomWeather, © 2015

See weather overviewHow to use our weather pages